sat.trackr.live / text

‹ back to catalog

STARLINK-33901

NORAD 63878 · 2025-094Q

PAYLOAD ACTIVE UNKNOWN

§ Identity

Operator
Country
US
Launch date
2025-05-10
Launch site
AFWTR
Launch vehicle
Mass (kg)
RCS (m²)

Purposes: comms

External: N2YO · Heavens-Above · Gunter

§ Orbital elements

Epoch: 2026-05-25T02:11:03.768576Z

Period
96.11 min
Inclination
70.0022°
Eccentricity
0.0002753
Mean motion
14.98336324 rev/d
Perigee alt
570.1 km
Apogee alt
573.9 km
Semi-major
6,950.2 km
B*
1.9326e-4
RAAN
41.9665°
Arg perigee
269.5934°
Mean anomaly
90.4910°
Rev number
5,864

§ Raw data

STARLINK-339011 63878U 25094Q   26145.09101584  .00002214  00000+0  19326-3 0  99902 63878  70.0022  41.9665 0002753 269.5934  90.4910 14.98336324 58640

JSON: /api/v1/satellites/63878 · /tle

For live sub-satellite position, see the globe view (requires WebGL).

§ Visibility from observer

Set your observer location to see the next 7 days of passes ≥ 10°. The values pass through the URL so the page stays shareable.

No JS? Fill the form by hand. The geolocation button needs JavaScript.